Find Kosmos-567

NORAD ID: 6678 Int'l Des: 1973-037 Owner: GUKOSR Country: SU operational
LEOCIRCULAR

現在のビュー

3D地球を読み込み中...

Kosmos-567について

説明を読み込み中...

次回通過

Passes for default location (London). Set your location on the main map for personalized predictions.

高度履歴

Loading altitude history...

軌道要素

1 6678U 73037D 26151.41174639 -.00000016 00000-0 -55802-6 0 9992
2 6678 74.0159 140.7974 0045163 3.8960 150.3593 12.54107194425227
Epoch: May 31, 2026 • Age: 9 hours

現在のステータス

高度 1419.6 km
速度 7.17 km/s
衛星直下点 -15.40°S, 31.71°W
タイプ other

Most Searched